| time (UTC) | temp F | wind direction | speed knots | gust knots | rain 1hr in | rain 24hr in | rain mn in | humidity % | barometer mb |
| 20260507140547 | 64 | 346 | 3.5 | 7.0 | 0.00 | 0.00 | 0.00 | 64 | 1007.9 |
| 20260507135544 | 66 | 128 | 1.7 | 6.1 | 0.00 | 0.00 | 0.00 | 61 | 1007.9 |
| 20260507134542 | 64 | 55 | 4.3 | 9.6 | 0.00 | 0.00 | 0.00 | 64 | 1008.1 |
| 20260507133539 | 64 | 342 | 6.1 | 14.8 | 0.00 | 0.00 | 0.00 | 64 | 1008.1 |
| 20260507132536 | 65 | 77 | 5.2 | 13.0 | 0.00 | 0.00 | 0.00 | 64 | 1008.1 |
| 20260507131534 | 64 | 46 | 4.3 | 9.6 | 0.00 | 0.00 | 0.00 | 67 | 1008.3 |
| 20260507130531 | 66 | 2 | 4.3 | 13.0 | 0.00 | 0.00 | 0.00 | 64 | 1008.4 |
| 20260507125529 | 66 | 60 | 4.3 | 13.0 | 0.00 | 0.00 | 0.00 | 64 | 1008.5 |
| 20260507124526 | 65 | 198 | 3.5 | 9.6 | 0.00 | 0.00 | 0.00 | 65 | 1008.5 |
| 20260507123523 | 66 | 197 | 3.5 | 11.3 | 0.00 | 0.00 | 0.00 | 64 | 1008.4 |
| 20260507122521 | 66 | 47 | 5.2 | 12.2 | 0.00 | 0.00 | 0.00 | 65 | 1008.4 |
| 20260507121518 | 67 | 118 | 2.6 | 7.0 | 0.00 | 0.00 | 0.00 | 62 | 1008.6 |
| 20260507120515 | 66 | 15 | 6.1 | 13.9 | 0.00 | 0.00 | 0.00 | 64 | 1008.5 |
| 20260507115613 | 67 | 164 | 2.6 | 7.8 | 0.00 | 0.00 | 0.00 | 62 | 1008.6 |
| 20260507114610 | 66 | 331 | 3.5 | 7.8 | 0.00 | 0.00 | 0.00 | 64 | 1008.6 |
| 20260507113608 | 65 | 42 | 4.3 | 9.6 | 0.00 | 0.00 | 0.00 | 66 | 1008.7 |
| 20260507112605 | 65 | 82 | 2.6 | 7.0 | 0.00 | 0.00 | 0.00 | 66 | 1008.8 |
| 20260507111603 | 65 | 163 | 1.7 | 5.2 | 0.00 | 0.00 | 0.00 | 66 | 1008.9 |
| 20260507110600 | 65 | 80 | 2.6 | 7.8 | 0.00 | 0.00 | 0.00 | 66 | 1009.0 |
| 20260507105557 | 67 | 141 | 1.7 | 7.0 | 0.00 | 0.00 | 0.00 | 63 | 1009.1 |
| 20260507104555 | 67 | 173 | 1.7 | 6.1 | 0.00 | 0.00 | 0.00 | 61 | 1009.2 |
| 20260507103552 | 66 | 52 | 1.7 | 3.5 | 0.00 | 0.00 | 0.00 | 61 | 1009.3 |
| 20260507102550 | 66 | 127 | 1.7 | 6.1 | 0.00 | 0.00 | 0.00 | 61 | 1009.5 |
| 20260507101547 | 67 | 161 | 1.7 | 3.5 | 0.00 | 0.00 | 0.00 | 61 | 1009.4 |
| 20260507100545 | 66 | 38 | 1.7 | 6.1 | 0.00 | 0.00 | 0.00 | 62 | 1009.4 |
| 20260507095542 | 66 | 84 | 1.7 | 3.5 | 0.00 | 0.00 | 0.00 | 64 | 1009.6 |
| 20260507094539 | 63 | 1 | 4.3 | 7.8 | 0.00 | 0.00 | 0.00 | 69 | 1009.6 |
| 20260507093537 | 61 | 0 | 0.9 | 1.7 | 0.00 | 0.00 | 0.00 | 71 | 1009.8 |
| 20260507092534 | 61 | 12 | 1.7 | 3.5 | 0.00 | 0.00 | 0.00 | 71 | 1009.7 |
| 20260507091532 | 63 | 0 | 0.9 | 3.5 | 0.00 | 0.00 | 0.00 | 69 | 1009.5 |
| 20260507090559 | 61 | 144 | 0.9 | 3.5 | 0.00 | 0.00 | 0.00 | 72 | 1009.4 |
| 20260507085556 | 62 | 94 | 2.6 | 5.2 | 0.00 | 0.00 | 0.00 | 70 | 1009.5 |
| 20260507084554 | 61 | 36 | 2.6 | 7.0 | 0.00 | 0.00 | 0.00 | 72 | 1009.5 |
| 20260507083551 | 60 | 71 | 2.6 | 6.1 | 0.00 | 0.00 | 0.00 | 73 | 1009.5 |
| 20260507082548 | 61 | 46 | 1.7 | 5.2 | 0.00 | 0.00 | 0.00 | 72 | 1009.6 |
| 20260507081546 | 60 | 12 | 2.6 | 9.6 | 0.00 | 0.00 | 0.00 | 75 | 1009.6 |
| 20260507080543 | 60 | 89 | 1.7 | 3.5 | 0.00 | 0.00 | 0.00 | 78 | 1009.7 |
| 20260507075541 | 60 | 78 | 0.0 | 1.7 | 0.00 | 0.00 | 0.00 | 79 | 1009.8 |
| 20260507074538 | 58 | 55 | 0.9 | 3.5 | 0.00 | 0.00 | 0.00 | 82 | 1009.8 |
| 20260507073535 | 57 | 342 | 2.6 | 5.2 | 0.00 | 0.00 | 0.00 | 81 | 1009.7 |
| 20260507072533 | 57 | 359 | 1.7 | 5.2 | 0.00 | 0.00 | 0.00 | 80 | 1009.9 |
| 20260507071530 | 57 | 3 | 0.9 | 3.5 | 0.00 | 0.00 | 0.00 | 79 | 1009.8 |
| 20260507070528 | 58 | 99 | 0.9 | 3.5 | 0.00 | 0.00 | 0.00 | 78 | 1009.6 |
| 20260507065525 | 58 | 110 | 0.0 | 3.5 | 0.00 | 0.00 | 0.00 | 76 | 1009.5 |
| 20260507064522 | 59 | 45 | 0.0 | 1.7 | 0.00 | 0.00 | 0.00 | 74 | 1009.3 |
| 20260507063520 | 58 | 346 | 1.7 | 3.5 | 0.00 | 0.00 | 0.00 | 75 | 1009.3 |
| 20260507062517 | 59 | 81 | 0.9 | 1.7 | 0.00 | 0.00 | 0.00 | 74 | 1009.0 |
| 20260507061515 | 58 | 30 | 0.9 | 3.5 | 0.00 | 0.00 | 0.00 | 76 | 1009.0 |
| 20260507060612 | 56 | 296 | 1.7 | 3.5 | 0.00 | 0.00 | 0.00 | 78 | 1008.9 |
| 20260507055609 | 56 | 274 | 0.9 | 3.5 | 0.00 | 0.00 | 0.00 | 79 | 1008.9 |
| 20260507054607 | 56 | 276 | 0.9 | 1.7 | 0.00 | 0.00 | 0.00 | 79 | 1008.9 |
| 20260507053604 | 56 | 281 | 0.0 | 1.7 | 0.00 | 0.00 | 0.00 | 80 | 1008.8 |
| 20260507052602 | 55 | 0.0 | 0.0 | 0.00 | 0.00 | 0.00 | 82 | 1008.6 | |
| 20260507051559 | 54 | 287 | 0.9 | 3.5 | 0.00 | 0.00 | 0.00 | 83 | 1008.5 |
| 20260507050557 | 53 | 282 | 0.9 | 3.5 | 0.00 | 0.00 | 0.00 | 85 | 1008.5 |
| 20260507045554 | 53 | 260 | 0.0 | 1.7 | 0.00 | 0.00 | 0.00 | 85 | 1008.5 |
| 20260507044551 | 53 | 315 | 0.0 | 1.7 | 0.00 | 0.00 | 0.00 | 85 | 1008.4 |
| 20260507043549 | 53 | 290 | 0.9 | 3.5 | 0.00 | 0.00 | 0.00 | 86 | 1008.5 |
| 20260507042546 | 53 | 268 | 0.9 | 3.5 | 0.00 | 0.00 | 0.00 | 86 | 1008.5 |
| 20260507041544 | 52 | 285 | 0.0 | 1.7 | 0.00 | 0.00 | 0.00 | 86 | 1008.4 |
| 20260507040541 | 52 | 0.0 | 0.0 | 0.00 | 0.00 | 0.00 | 86 | 1008.5 | |
| 20260507035538 | 52 | 0.0 | 1.7 | 0.00 | 0.00 | 0.00 | 86 | 1008.5 | |
| 20260507034536 | 53 | 256 | 0.9 | 1.7 | 0.00 | 0.00 | 0.00 | 86 | 1008.4 |
| 20260507033533 | 53 | 0.0 | 0.0 | 0.00 | 0.00 | 0.00 | 86 | 1008.5 | |
| 20260507032531 | 52 | 0.0 | 0.0 | 0.00 | 0.00 | 0.00 | 86 | 1008.6 | |
| 20260507031528 | 53 | 0.0 | 1.7 | 0.00 | 0.00 | 0.00 | 86 | 1008.8 | |
| 20260507030525 | 53 | 0.0 | 0.0 | 0.00 | 0.00 | 0.00 | 86 | 1008.7 | |
| 20260507025523 | 53 | 282 | 0.9 | 3.5 | 0.00 | 0.00 | 0.00 | 85 | 1008.5 |
| 20260507024520 | 53 | 278 | 2.6 | 3.5 | 0.00 | 0.00 | 0.00 | 85 | 1008.6 |
| 20260507023518 | 53 | 281 | 2.6 | 3.5 | 0.00 | 0.00 | 0.00 | 85 | 1008.4 |
| 20260507022515 | 53 | 280 | 2.6 | 3.5 | 0.00 | 0.00 | 0.00 | 85 | 1008.5 |
| 20260507021613 | 53 | 284 | 2.6 | 3.5 | 0.00 | 0.00 | 0.00 | 85 | 1008.5 |
| 20260507020610 | 53 | 289 | 2.6 | 5.2 | 0.00 | 0.00 | 0.00 | 85 | 1008.6 |
| 20260507015607 | 54 | 295 | 2.6 | 3.5 | 0.00 | 0.00 | 0.00 | 85 | 1008.7 |
| 20260507014605 | 54 | 265 | 2.6 | 3.5 | 0.00 | 0.00 | 0.00 | 85 | 1008.8 |
| 20260507013602 | 53 | 297 | 2.6 | 3.5 | 0.00 | 0.00 | 0.00 | 86 | 1008.8 |
| 20260507012600 | 53 | 294 | 2.6 | 3.5 | 0.00 | 0.00 | 0.00 | 86 | 1008.7 |
| 20260507011557 | 53 | 295 | 3.5 | 5.2 | 0.00 | 0.00 | 0.00 | 86 | 1008.7 |
| 20260507010554 | 53 | 296 | 3.5 | 5.2 | 0.00 | 0.00 | 0.00 | 87 | 1008.9 |
| 20260507005552 | 53 | 293 | 3.5 | 5.2 | 0.00 | 0.00 | 0.00 | 87 | 1008.9 |
| 20260507004549 | 53 | 286 | 3.5 | 5.2 | 0.00 | 0.00 | 0.00 | 87 | 1009.0 |
| 20260507003547 | 53 | 301 | 3.5 | 6.1 | 0.00 | 0.00 | 0.00 | 88 | 1009.0 |
| 20260507002544 | 53 | 296 | 3.5 | 5.2 | 0.00 | 0.00 | 0.00 | 88 | 1009.0 |
| 20260507001541 | 53 | 288 | 2.6 | 6.1 | 0.00 | 0.00 | 0.00 | 88 | 1009.2 |
| 20260507000539 | 53 | 293 | 4.3 | 6.1 | 0.00 | 0.00 | 0.00 | 88 | 1009.1 |
| 20260506235536 | 53 | 307 | 3.5 | 6.1 | 0.00 | 0.00 | 0.00 | 88 | 1009.2 |
| 20260506234534 | 54 | 294 | 4.3 | 7.0 | 0.00 | 0.00 | 0.00 | 89 | 1009.1 |
| 20260506233531 | 54 | 280 | 3.5 | 7.0 | 0.00 | 0.00 | 0.00 | 89 | 1009.2 |
| 20260506232529 | 54 | 296 | 4.3 | 6.1 | 0.00 | 0.00 | 0.00 | 89 | 1009.3 |
| 20260506231526 | 54 | 303 | 4.3 | 6.1 | 0.00 | 0.00 | 0.00 | 89 | 1009.3 |
| 20260506230523 | 54 | 293 | 4.3 | 7.0 | 0.00 | 0.00 | 0.00 | 88 | 1009.3 |
| 20260506225521 | 54 | 290 | 4.3 | 6.1 | 0.00 | 0.00 | 0.00 | 87 | 1009.3 |
| 20260506224518 | 54 | 289 | 3.5 | 7.0 | 0.00 | 0.00 | 0.00 | 85 | 1009.3 |
| 20260506223515 | 55 | 307 | 3.5 | 6.1 | 0.00 | 0.00 | 0.00 | 84 | 1009.3 |
| 20260506222613 | 55 | 307 | 2.6 | 3.5 | 0.00 | 0.00 | 0.00 | 84 | 1009.3 |
| 20260506221610 | 55 | 282 | 3.5 | 5.2 | 0.00 | 0.00 | 0.00 | 84 | 1009.3 |
| 20260506220608 | 55 | 297 | 1.7 | 3.5 | 0.00 | 0.00 | 0.00 | 83 | 1009.3 |
| 20260506215605 | 55 | 311 | 2.6 | 5.2 | 0.00 | 0.00 | 0.00 | 83 | 1009.2 |
| 20260506214603 | 55 | 276 | 1.7 | 3.5 | 0.00 | 0.00 | 0.00 | 83 | 1009.1 |
| 20260506213600 | 55 | 300 | 2.6 | 3.5 | 0.00 | 0.00 | 0.00 | 82 | 1009.2 |
| 20260506212557 | 56 | 295 | 1.7 | 3.5 | 0.00 | 0.00 | 0.00 | 83 | 1009.2 |
| 20260506211555 | 56 | 307 | 3.5 | 5.2 | 0.00 | 0.00 | 0.00 | 82 | 1009.2 |
| 20260506210552 | 57 | 341 | 1.7 | 3.5 | 0.00 | 0.00 | 0.00 | 80 | 1009.1 |
| 20260506205550 | 57 | 6 | 0.9 | 1.7 | 0.00 | 0.00 | 0.00 | 79 | 1009.1 |
| 20260506204547 | 57 | 15 | 0.9 | 3.5 | 0.00 | 0.00 | 0.00 | 79 | 1008.9 |
| 20260506203544 | 58 | 15 | 0.9 | 3.5 | 0.00 | 0.00 | 0.00 | 77 | 1008.7 |
| 20260506202542 | 58 | 6 | 1.7 | 5.2 | 0.00 | 0.00 | 0.00 | 78 | 1008.7 |
| 20260506201539 | 57 | 5 | 1.7 | 3.5 | 0.00 | 0.00 | 0.00 | 80 | 1008.5 |
| 20260506200531 | 58 | 359 | 0.9 | 3.5 | 0.00 | 0.00 | 0.00 | 78 | 1008.4 |
| 20260506195528 | 58 | 14 | 1.7 | 3.5 | 0.00 | 0.00 | 0.00 | 78 | 1008.2 |
| 20260506194520 | 58 | 348 | 1.7 | 3.5 | 0.00 | 0.00 | 0.00 | 80 | 1008.0 |
| 20260506193518 | 58 | 325 | 1.7 | 5.2 | 0.00 | 0.00 | 0.00 | 78 | 1007.7 |
| 20260506192515 | 59 | 348 | 1.7 | 5.2 | 0.00 | 0.00 | 0.00 | 74 | 1007.6 |
| 20260506191607 | 59 | 33 | 2.6 | 5.2 | 0.00 | 0.00 | 0.00 | 71 | 1007.6 |
| 20260506190604 | 60 | 4 | 2.6 | 7.8 | 0.00 | 0.00 | 0.00 | 71 | 1007.4 |
| 20260506185557 | 60 | 36 | 4.3 | 9.6 | 0.00 | 0.00 | 0.00 | 71 | 1007.2 |
| 20260506184554 | 60 | 68 | 2.6 | 7.0 | 0.00 | 0.00 | 0.00 | 69 | 1007.1 |
| 20260506183551 | 60 | 5 | 4.3 | 9.6 | 0.00 | 0.00 | 0.00 | 68 | 1006.9 |
| 20260506182543 | 61 | 353 | 2.6 | 7.8 | 0.00 | 0.00 | 0.00 | 67 | 1006.8 |
| 20260506181540 | 61 | 23 | 3.5 | 6.1 | 0.00 | 0.00 | 0.00 | 67 | 1006.8 |
| 20260506180532 | 62 | 18 | 6.1 | 11.3 | 0.00 | 0.00 | 0.00 | 66 | 1006.7 |
| 20260506175529 | 63 | 55 | 3.5 | 9.6 | 0.00 | 0.00 | 0.00 | 63 | 1006.6 |
| 20260506174526 | 63 | 21 | 5.2 | 11.3 | 0.00 | 0.00 | 0.00 | 62 | 1006.5 |
| 20260506173518 | 64 | 333 | 3.5 | 11.3 | 0.00 | 0.00 | 0.00 | 59 | 1006.1 |
| 20260506172515 | 64 | 20 | 4.3 | 7.8 | 0.00 | 0.00 | 0.00 | 56 | 1006.1 |
| 20260506171607 | 66 | 55 | 1.7 | 5.2 | 0.00 | 0.01 | 0.00 | 54 | 1006.2 |
| 20260506170604 | 66 | 159 | 0.9 | 3.5 | 0.00 | 0.01 | 0.00 | 55 | 1006.1 |
| 20260506165557 | 66 | 100 | 0.9 | 3.5 | 0.00 | 0.01 | 0.00 | 54 | 1006.0 |
| 20260506164554 | 65 | 100 | 1.7 | 5.2 | 0.00 | 0.02 | 0.00 | 55 | 1006.0 |
| 20260506163551 | 65 | 102 | 2.6 | 7.8 | 0.00 | 0.02 | 0.00 | 55 | 1005.9 |
| 20260506162543 | 65 | 104 | 2.6 | 9.6 | 0.00 | 0.04 | 0.00 | 55 | 1005.9 |
| 20260506161540 | 67 | 118 | 1.7 | 5.2 | 0.00 | 0.04 | 0.00 | 54 | 1005.8 |
| 20260506160533 | 67 | 115 | 1.7 | 9.6 | 0.00 | 0.05 | 0.00 | 54 | 1005.7 |
| 20260506155530 | 66 | 71 | 2.6 | 9.6 | 0.00 | 0.24 | 0.00 | 55 | 1005.7 |
| 20260506154527 | 66 | 153 | 2.6 | 9.6 | 0.00 | 0.33 | 0.00 | 55 | 1005.6 |
| 20260506153519 | 68 | 119 | 3.5 | 7.8 | 0.00 | 0.33 | 0.00 | 52 | 1005.7 |
| 20260506152517 | 68 | 87 | 3.5 | 9.6 | 0.00 | 0.33 | 0.00 | 49 | 1005.6 |
| 20260506151608 | 69 | 149 | 2.6 | 7.0 | 0.00 | 0.33 | 0.00 | 49 | 1005.7 |
| 20260506150605 | 69 | 139 | 1.7 | 7.0 | 0.00 | 0.33 | 0.00 | 48 | 1005.7 |
| 20260506145603 | 68 | 119 | 3.5 | 6.1 | 0.00 | 0.33 | 0.00 | 49 | 1005.7 |
| 20260506144554 | 68 | 99 | 4.3 | 9.6 | 0.00 | 0.33 | 0.00 | 47 | 1005.9 |
| 20260506143551 | 69 | 108 | 3.5 | 9.6 | 0.00 | 0.33 | 0.00 | 46 | 1005.9 |
| 20260506142543 | 68 | 127 | 3.5 | 9.6 | 0.00 | 0.33 | 0.00 | 48 | 1006.0 |
| 20260506141540 | 68 | 129 | 4.3 | 9.6 | 0.00 | 0.33 | 0.00 | 48 | 1006.1 |